Tracking 20621 objects as of 31-Mar-2020
HD Live streaming from Space Station
objects crossing your sky now

THOR 3

Track THOR 3 now!
THOR 3 is classified as:


NORAD ID: 25358
Int'l Code: 1998-035A
Perigee: 36,193.6 km
Apogee: 36,212.4 km
Inclination: 7.6 °
Period: 1,457.1 minutes
Semi major axis: 42573 km
RCS: 23.5207 m2 (large)
Launch date: June 10, 1998
Source: Norway (NOR)
Launch site: AIR FORCE EASTERN TEST RANGE (AFETR)

14 Ku-band; Nordic region, central and eastern Europe.
aabbcc
Your satellite tracking list
Your tracking list is empty




NASA's NSSDC Master Catalog

Two Line Element Set (TLE):
1 25358U 98035A   20090.37757819 -.00000172  00000-0  00000+0 0  9996
2 25358   7.5979  54.1670 0002219 332.1790 243.1464  0.98829428 79903
Source of the keplerian elements: AFSPC